LAOSAT 1

Last updated on Fri Sep 19 2025 00:02:49 GMT+0000 (Coordinated Universal Time)

1 41034U 15067A 25261.26225409 -.00000364 00000+0 00000+0 0 9999 2 41034 0.0496 332.3914 0002242 144.2405 103.6806 1.00268005 36137
UTC large
Height (km)
Speed (km/s)
/
Latitude / Longitude
Inclination (degrees)
Orbital Period (minutes)
Azimuth
Elevation
Range (km)
Doppler Factor

Next 0 passes for location: London (51.5072 / 0.1276)

Sorry there are no passes over London.